Hourly Weather Jambol

Today, 12 July, Sunday

Time Temperature Precipitation Wind Pressure Humidity
00:00 +20°C° 0 mm 1 mps 749 mmHg 87%
01:00 +19°C° 0 mm 1 mps 749 mmHg 86%
02:00 +17°C° 0 mm 0 mps 748 mmHg 86%
03:00 +17°C° 0 mm 0 mps 748 mmHg 84%
04:00 +16°C° 0 mm 0 mps 748 mmHg 83%
05:00 +18°C° 0 mm 1 mps 748 mmHg 82%
06:00 +21°C° 0 mm 1 mps 748 mmHg 73%
07:00 +23°C° 0 mm 1 mps 749 mmHg 65%
08:00 +25°C° 0 mm 1 mps 749 mmHg 56%
09:00 +27°C° 0 mm 1 mps 749 mmHg 49%
10:00 +28°C° 0 mm 2 mps 749 mmHg 42%
11:00 +30°C° 0 mm 2 mps 749 mmHg 35%
12:00 +31°C° 0 mm 3 mps 749 mmHg 35%
13:00 +33°C° 0 mm 4 mps 748 mmHg 34%
14:00 +33°C° 0 mm 5 mps 748 mmHg 33%
15:00 +33°C° 0 mm 5 mps 748 mmHg 36%
16:00 +33°C° 0 mm 5 mps 748 mmHg 38%
17:00 +32°C° 0 mm 5 mps 747 mmHg 40%
18:00 +29°C° 0 mm 4 mps 748 mmHg 47%
19:00 +27°C° 0 mm 3 mps 748 mmHg 54%
20:00 +25°C° 0 mm 3 mps 748 mmHg 62%
21:00 +24°C° 0 mm 3 mps 748 mmHg 62%
22:00 +24°C° 0 mm 3 mps 748 mmHg 63%
23:00 +22°C° 0 mm 3 mps 748 mmHg 64%

Tomorrow, 13 July, Monday

Time Temperature Precipitation Wind Pressure Humidity
00:00 +21°C° 0 mm 3 mps 749 mmHg 64%
01:00 +20°C° 0 mm 4 mps 749 mmHg 64%
02:00 +20°C° 0 mm 4 mps 749 mmHg 64%
03:00 +19°C° 0 mm 3 mps 749 mmHg 66%
04:00 +19°C° 0 mm 3 mps 749 mmHg 68%
05:00 +18°C° 0 mm 3 mps 749 mmHg 70%
06:00 +19°C° 0 mm 3 mps 749 mmHg 68%
07:00 +19°C° 0 mm 4 mps 750 mmHg 66%
08:00 +20°C° 0 mm 4 mps 750 mmHg 64%
09:00 +20°C° 0 mm 5 mps 750 mmHg 63%
10:00 +20°C° 0 mm 5 mps 750 mmHg 63%
11:00 +21°C° 0 mm 6 mps 750 mmHg 62%
12:00 +22°C° 0 mm 6 mps 750 mmHg 57%
13:00 +22°C° 0 mm 6 mps 750 mmHg 53%
14:00 +23°C° 0 mm 7 mps 750 mmHg 48%
15:00 +23°C° 0 mm 6 mps 750 mmHg 49%
16:00 +23°C° 0 mm 5 mps 750 mmHg 50%
17:00 +23°C° 0 mm 5 mps 750 mmHg 50%
18:00 +21°C° 0 mm 4 mps 750 mmHg 56%
19:00 +20°C° 0 mm 3 mps 750 mmHg 62%
20:00 +18°C° 0 mm 2 mps 750 mmHg 68%
21:00 +17°C° 0 mm 2 mps 750 mmHg 70%
22:00 +17°C° 0 mm 2 mps 750 mmHg 73%
23:00 +16°C° 0 mm 2 mps 751 mmHg 76%

Day after tomorrow, 14 July, Tuesday

Time Temperature Precipitation Wind Pressure Humidity
00:00 +16°C° 0 mm 2 mps 751 mmHg 76%
01:00 +15°C° 0 mm 2 mps 751 mmHg 76%
02:00 +15°C° 0 mm 1 mps 751 mmHg 77%
03:00 +15°C° 0 mm 1 mps 751 mmHg 77%
04:00 +14°C° 0 mm 1 mps 751 mmHg 78%
05:00 +14°C° 0 mm 1 mps 751 mmHg 78%
06:00 +16°C° 0 mm 2 mps 751 mmHg 71%
07:00 +18°C° 0 mm 2 mps 751 mmHg 63%
08:00 +20°C° 0 mm 2 mps 751 mmHg 55%
09:00 +22°C° 0 mm 3 mps 751 mmHg 49%
10:00 +24°C° 0 mm 3 mps 751 mmHg 44%
11:00 +26°C° 0 mm 3 mps 750 mmHg 38%
12:00 +27°C° 0 mm 3 mps 750 mmHg 36%
13:00 +27°C° 0 mm 3 mps 750 mmHg 35%
14:00 +28°C° 0 mm 3 mps 750 mmHg 33%
15:00 +28°C° 0 mm 3 mps 750 mmHg 35%
16:00 +27°C° 0 mm 3 mps 750 mmHg 37%
17:00 +27°C° 0 mm 3 mps 749 mmHg 39%
18:00 +25°C° 0 mm 3 mps 749 mmHg 47%
19:00 +22°C° 0 mm 3 mps 750 mmHg 54%
20:00 +20°C° 0 mm 3 mps 750 mmHg 61%
21:00 +19°C° 0 mm 2 mps 750 mmHg 65%
22:00 +18°C° 0 mm 2 mps 750 mmHg 70%
23:00 +18°C° 0 mm 1 mps 750 mmHg 75%

15 July, Wednesday

Time Temperature Precipitation Wind Pressure Humidity
00:00 +16°C° 0 mm 1 mps 750 mmHg 76%
01:00 +16°C° 0 mm 1 mps 750 mmHg 78%
02:00 +16°C° 0 mm 1 mps 750 mmHg 80%
03:00 +15°C° 0 mm 1 mps 750 mmHg 80%
04:00 +15°C° 0 mm 1 mps 750 mmHg 80%
05:00 +15°C° 0 mm 1 mps 750 mmHg 81%
06:00 +18°C° 0 mm 1 mps 750 mmHg 72%
07:00 +21°C° 0 mm 1 mps 751 mmHg 64%
08:00 +23°C° 0 mm 1 mps 751 mmHg 55%
09:00 +24°C° 0 mm 1 mps 751 mmHg 49%
10:00 +26°C° 0 mm 2 mps 751 mmHg 43%
11:00 +27°C° 0 mm 2 mps 751 mmHg 37%
12:00 +28°C° 0 mm 2 mps 750 mmHg 35%
13:00 +29°C° 0 mm 3 mps 750 mmHg 33%
14:00 +30°C° 0 mm 3 mps 750 mmHg 31%
15:00 +29°C° 0 mm 3 mps 750 mmHg 32%
16:00 +29°C° 0 mm 3 mps 749 mmHg 34%
17:00 +29°C° 0 mm 3 mps 749 mmHg 35%
18:00 +27°C° 0 mm 3 mps 749 mmHg 42%
19:00 +24°C° 0 mm 3 mps 749 mmHg 49%
20:00 +21°C° 0 mm 3 mps 749 mmHg 56%
21:00 +20°C° 0 mm 2 mps 750 mmHg 59%
22:00 +20°C° 0 mm 1 mps 750 mmHg 62%
23:00 +19°C° 0 mm 1 mps 750 mmHg 66%

16 July, Thursday

Time Temperature Precipitation Wind Pressure Humidity
00:00 +19°C° 0 mm 1 mps 750 mmHg 67%
01:00 +16°C° 0 mm 0 mps 750 mmHg 68%
02:00 +16°C° 0 mm 0 mps 749 mmHg 69%
03:00 +16°C° 0 mm 0 mps 749 mmHg 69%
04:00 +15°C° 0 mm 0 mps 749 mmHg 70%
05:00 +15°C° 0 mm 0 mps 749 mmHg 70%
06:00 +18°C° 0 mm 0 mps 749 mmHg 63%
07:00 +20°C° 0 mm 0 mps 749 mmHg 57%
08:00 +24°C° 0 mm 1 mps 749 mmHg 50%
09:00 +26°C° 0 mm 1 mps 749 mmHg 45%
10:00 +28°C° 0 mm 1 mps 748 mmHg 41%
11:00 +29°C° 0 mm 1 mps 748 mmHg 37%
12:00 +30°C° 0 mm 1 mps 748 mmHg 35%
13:00 +31°C° 0 mm 2 mps 748 mmHg 33%
14:00 +32°C° 0 mm 2 mps 747 mmHg 31%
15:00 +31°C° 0 mm 2 mps 747 mmHg 32%
16:00 +31°C° 0 mm 2 mps 747 mmHg 33%
17:00 +31°C° 0 mm 2 mps 746 mmHg 34%
18:00 +28°C° 0 mm 3 mps 746 mmHg 40%
19:00 +26°C° 0 mm 3 mps 746 mmHg 47%
20:00 +22°C° 0 mm 3 mps 746 mmHg 53%
21:00 +21°C° 0 mm 2 mps 746 mmHg 56%
22:00 +20°C° 0 mm 2 mps 746 mmHg 58%
23:00 +20°C° 0 mm 1 mps 746 mmHg 61%

17 July, Friday

Time Temperature Precipitation Wind Pressure Humidity
00:00 +20°C° 0 mm 1 mps 746 mmHg 62%
01:00 +19°C° 0 mm 1 mps 746 mmHg 63%
02:00 +17°C° 0 mm 0 mps 746 mmHg 64%
03:00 +17°C° 0 mm 0 mps 746 mmHg 64%
04:00 +17°C° 0 mm 0 mps 746 mmHg 64%
05:00 +17°C° 0 mm 0 mps 745 mmHg 65%
06:00 +21°C° 0 mm 1 mps 745 mmHg 59%
07:00 +23°C° 0 mm 1 mps 746 mmHg 54%
08:00 +25°C° 0 mm 2 mps 746 mmHg 49%
09:00 +27°C° 0 mm 2 mps 746 mmHg 45%
10:00 +29°C° 0 mm 2 mps 746 mmHg 42%
11:00 +31°C° 0 mm 2 mps 746 mmHg 38%
12:00 +31°C° 0 mm 3 mps 745 mmHg 38%
13:00 +32°C° 0 mm 4 mps 745 mmHg 37%
14:00 +32°C° 0 mm 5 mps 745 mmHg 37%
15:00 +32°C° 0 mm 5 mps 745 mmHg 38%
16:00 +32°C° 0 mm 5 mps 745 mmHg 38%
17:00 +32°C° 0 mm 5 mps 745 mmHg 39%
18:00 +29°C° 0 mm 4 mps 745 mmHg 44%
19:00 +27°C° 0 mm 3 mps 745 mmHg 49%
20:00 +25°C° 0 mm 2 mps 745 mmHg 54%
21:00 +24°C° 0 mm 2 mps 746 mmHg 54%
22:00 +23°C° 0 mm 2 mps 746 mmHg 55%
23:00 +21°C° 0 mm 2 mps 746 mmHg 55%
Show more